Location: Berg
(48.4333°N, 13.9167°E)
Time: 06:24:46
(UTC+00:00)

Cosmos 2098 Rocket - Pass Details

Date: 18 September 2020
Orbit: 366 x 1185 km, 82.9° (Epoch: 27 October)

Event Time Altitude Azimuth Distance (km) Brightness Sun altitude
Rises 20:52:08 0° 348° (NNW) 4,069 8.1 -33.1°
Reaches altitude 10° 20:54:58 10° 346° (NNW) 3,061 7.3 -33.4°
Enters shadow 21:01:40 62° 286° (WNW) 1,179 4.4 -34.1°
